sat.trackr.live / text

‹ back to catalog

STARLINK-4204

NORAD 52854 · 2022-062AA

PAYLOAD ACTIVE UNKNOWN

§ Identity

Operator
Country
US
Launch date
2022-06-17
Launch site
AFETR
Launch vehicle
Mass (kg)
RCS (m²)

Purposes: comms

External: N2YO · Heavens-Above · Gunter

§ Orbital elements

Epoch: 2026-05-25T00:11:37.255776Z

Period
95.44 min
Inclination
53.2139°
Eccentricity
0.0001607
Mean motion
15.08833248 rev/d
Perigee alt
538.7 km
Apogee alt
540.9 km
Semi-major
6,917.9 km
B*
5.8738e-5
RAAN
41.5118°
Arg perigee
89.6841°
Mean anomaly
270.4335°
Rev number
21,744

§ Raw data

STARLINK-42041 52854U 22062AA  26145.00807009  .00000647  00000+0  58738-4 0  99992 52854  53.2139  41.5118 0001607  89.6841 270.4335 15.08833248217443

JSON: /api/v1/satellites/52854 · /tle

For live sub-satellite position, see the globe view (requires WebGL).

§ Visibility from observer

Set your observer location to see the next 7 days of passes ≥ 10°. The values pass through the URL so the page stays shareable.

No JS? Fill the form by hand. The geolocation button needs JavaScript.